Year,Month,Day,Hour,Minute,Value (Times are PST for temperature in C)
2017,07,02,00,00,14.60
2017,07,02,00,01,14.60
2017,07,02,00,02,14.60
2017,07,02,00,03,14.60
2017,07,02,00,04,14.60
2017,07,02,00,05,14.60
2017,07,02,00,06,14.60
2017,07,02,00,07,14.60
2017,07,02,00,08,14.60
2017,07,02,00,09,14.60
2017,07,02,00,10,14.60
2017,07,02,00,11,14.60
2017,07,02,00,12,14.60
2017,07,02,00,13,14.60
2017,07,02,00,14,14.50
2017,07,02,00,15,14.50
2017,07,02,00,16,14.60
2017,07,02,00,17,14.60
2017,07,02,00,18,14.60
2017,07,02,00,19,14.50
2017,07,02,00,20,14.60
2017,07,02,00,21,14.60
2017,07,02,00,22,14.60
2017,07,02,00,23,14.60
2017,07,02,00,24,14.60
2017,07,02,00,25,14.60
2017,07,02,00,26,14.60
2017,07,02,00,27,14.60
2017,07,02,00,28,14.60
2017,07,02,00,29,14.60
2017,07,02,00,30,14.60
2017,07,02,00,31,14.60
2017,07,02,00,32,14.60
2017,07,02,00,33,14.60
2017,07,02,00,34,14.60
2017,07,02,00,35,14.60
2017,07,02,00,36,14.60
2017,07,02,00,37,14.60
2017,07,02,00,38,14.60
2017,07,02,00,39,14.60
2017,07,02,00,40,14.60
2017,07,02,00,41,14.60
2017,07,02,00,42,14.60
2017,07,02,00,43,14.60
2017,07,02,00,44,14.60
2017,07,02,00,45,14.60
2017,07,02,00,46,14.60
2017,07,02,00,47,14.60
2017,07,02,00,48,14.60
2017,07,02,00,49,14.60
2017,07,02,00,50,14.60
2017,07,02,00,51,14.50
2017,07,02,00,52,14.50
2017,07,02,00,53,14.50
2017,07,02,00,54,14.50
2017,07,02,00,55,14.50
2017,07,02,00,56,14.50
2017,07,02,00,57,14.50
2017,07,02,00,58,14.50
2017,07,02,00,59,14.50
2017,07,02,01,00,14.50
2017,07,02,01,01,14.60
2017,07,02,01,02,14.50
2017,07,02,01,03,14.50
2017,07,02,01,04,14.50
2017,07,02,01,05,14.50
2017,07,02,01,06,14.50
2017,07,02,01,07,14.50
2017,07,02,01,08,14.50
2017,07,02,01,09,14.50
2017,07,02,01,10,14.50
2017,07,02,01,11,14.50
2017,07,02,01,12,14.50
2017,07,02,01,13,14.50
2017,07,02,01,14,14.50
2017,07,02,01,15,14.50
2017,07,02,01,16,14.50
2017,07,02,01,17,14.50
2017,07,02,01,18,14.40
2017,07,02,01,19,14.40
2017,07,02,01,20,14.50
2017,07,02,01,21,14.50
2017,07,02,01,22,14.50
2017,07,02,01,23,14.50
2017,07,02,01,24,14.50
2017,07,02,01,25,14.50
2017,07,02,01,26,14.50
2017,07,02,01,27,14.50
2017,07,02,01,28,14.50
2017,07,02,01,29,14.50
2017,07,02,01,30,14.50
2017,07,02,01,31,14.50
2017,07,02,01,32,14.50
2017,07,02,01,33,14.50
2017,07,02,01,34,14.50
2017,07,02,01,35,14.50
2017,07,02,01,36,14.50
2017,07,02,01,37,14.50
2017,07,02,01,38,14.50
2017,07,02,01,39,14.50
2017,07,02,01,40,14.50
2017,07,02,01,41,14.50
2017,07,02,01,42,14.50
2017,07,02,01,43,14.50
2017,07,02,01,44,14.50
2017,07,02,01,45,14.50
2017,07,02,01,46,14.50
2017,07,02,01,47,14.50
2017,07,02,01,48,14.50
2017,07,02,01,49,14.50
2017,07,02,01,50,14.50
2017,07,02,01,51,14.50
2017,07,02,01,52,14.50
2017,07,02,01,53,14.50
2017,07,02,01,54,14.50
2017,07,02,01,55,14.50
2017,07,02,01,56,14.50
2017,07,02,01,57,14.50
2017,07,02,01,58,14.50
2017,07,02,01,59,14.50
2017,07,02,02,00,14.50
2017,07,02,02,01,14.50
2017,07,02,02,02,14.50
2017,07,02,02,03,14.50
2017,07,02,02,04,14.50
2017,07,02,02,05,14.40
2017,07,02,02,06,14.40
2017,07,02,02,07,14.40
2017,07,02,02,08,14.40
2017,07,02,02,09,14.40
2017,07,02,02,10,14.40
2017,07,02,02,11,14.40
2017,07,02,02,12,14.40
2017,07,02,02,13,14.40
2017,07,02,02,14,14.30
2017,07,02,02,15,14.30
2017,07,02,02,16,14.30
2017,07,02,02,17,14.30
2017,07,02,02,18,14.30
2017,07,02,02,19,14.30
2017,07,02,02,20,14.30
2017,07,02,02,21,14.20
2017,07,02,02,22,14.20
2017,07,02,02,23,14.20
2017,07,02,02,24,14.20
2017,07,02,02,25,14.20
2017,07,02,02,26,14.20
2017,07,02,02,27,14.20
2017,07,02,02,28,14.20
2017,07,02,02,29,14.20
2017,07,02,02,30,14.20
2017,07,02,02,31,14.20
2017,07,02,02,32,14.20
2017,07,02,02,33,14.20
2017,07,02,02,34,14.20
2017,07,02,02,35,14.20
2017,07,02,02,36,14.20
2017,07,02,02,37,14.20
2017,07,02,02,38,14.20
2017,07,02,02,39,14.20
2017,07,02,02,40,14.20
2017,07,02,02,41,14.20
2017,07,02,02,42,14.20
2017,07,02,02,43,14.20
2017,07,02,02,44,14.20
2017,07,02,02,45,14.20
2017,07,02,02,46,14.20
2017,07,02,02,47,14.20
2017,07,02,02,48,14.20
2017,07,02,02,49,14.20
2017,07,02,02,50,14.20
2017,07,02,02,51,14.20
2017,07,02,02,52,14.20
2017,07,02,02,53,14.20
2017,07,02,02,54,14.20
2017,07,02,02,55,14.20
2017,07,02,02,56,14.20
2017,07,02,02,57,14.30
2017,07,02,02,58,14.30
2017,07,02,02,59,14.30
2017,07,02,03,00,14.30
2017,07,02,03,01,14.30
2017,07,02,03,02,14.30
2017,07,02,03,03,14.30
2017,07,02,03,04,14.30
2017,07,02,03,05,14.30
2017,07,02,03,06,14.30
2017,07,02,03,07,14.30
2017,07,02,03,08,14.30
2017,07,02,03,09,14.30
2017,07,02,03,10,14.30
2017,07,02,03,11,14.30
2017,07,02,03,12,14.30
2017,07,02,03,13,14.30
2017,07,02,03,14,14.30
2017,07,02,03,15,14.30
2017,07,02,03,16,14.30
2017,07,02,03,17,14.30
2017,07,02,03,18,14.30
2017,07,02,03,19,14.30
2017,07,02,03,20,14.30
2017,07,02,03,21,14.30
2017,07,02,03,22,14.30
2017,07,02,03,23,14.30
2017,07,02,03,24,14.30
2017,07,02,03,25,14.30
2017,07,02,03,26,14.30
2017,07,02,03,27,14.30
2017,07,02,03,28,14.30
2017,07,02,03,29,14.30
2017,07,02,03,30,14.30
2017,07,02,03,31,14.30
2017,07,02,03,32,14.30
2017,07,02,03,33,14.30
2017,07,02,03,34,14.20
2017,07,02,03,35,14.20
2017,07,02,03,36,14.20
2017,07,02,03,37,14.20
2017,07,02,03,38,14.20
2017,07,02,03,39,14.20
2017,07,02,03,40,14.20
2017,07,02,03,41,14.20
2017,07,02,03,42,14.20
2017,07,02,03,43,14.20
2017,07,02,03,44,14.20
2017,07,02,03,45,14.20
2017,07,02,03,46,14.20
2017,07,02,03,47,14.20
2017,07,02,03,48,14.20
2017,07,02,03,49,14.20
2017,07,02,03,50,14.20
2017,07,02,03,51,14.20
2017,07,02,03,52,14.20
2017,07,02,03,53,14.20
2017,07,02,03,54,14.20
2017,07,02,03,55,14.20
2017,07,02,03,56,14.20
2017,07,02,03,57,14.20
2017,07,02,03,58,14.20
2017,07,02,03,59,14.20
2017,07,02,04,00,14.20
2017,07,02,04,01,14.20
2017,07,02,04,02,14.20
2017,07,02,04,03,14.20
2017,07,02,04,04,14.20
2017,07,02,04,05,14.20
2017,07,02,04,06,14.20
2017,07,02,04,07,14.20
2017,07,02,04,08,14.20
2017,07,02,04,09,14.20
2017,07,02,04,10,14.20
2017,07,02,04,11,14.20
2017,07,02,04,12,14.20
2017,07,02,04,13,14.20
2017,07,02,04,14,14.20
2017,07,02,04,15,14.10
2017,07,02,04,16,14.20
2017,07,02,04,17,14.10
2017,07,02,04,18,14.20
2017,07,02,04,19,14.10
2017,07,02,04,20,14.10
2017,07,02,04,21,14.10
2017,07,02,04,22,14.10
2017,07,02,04,23,14.10
2017,07,02,04,24,14.10
2017,07,02,04,25,14.00
2017,07,02,04,26,14.00
2017,07,02,04,27,14.00
2017,07,02,04,28,13.90
2017,07,02,04,29,13.90
2017,07,02,04,30,13.90
2017,07,02,04,31,13.90
2017,07,02,04,32,13.90
2017,07,02,04,33,13.90
2017,07,02,04,34,13.80
2017,07,02,04,35,13.80
2017,07,02,04,36,13.80
2017,07,02,04,37,13.80
2017,07,02,04,38,13.80
2017,07,02,04,39,13.80
2017,07,02,04,40,13.80
2017,07,02,04,41,13.80
2017,07,02,04,42,13.80
2017,07,02,04,43,13.80
2017,07,02,04,44,13.80
2017,07,02,04,45,13.80
2017,07,02,04,46,13.70
2017,07,02,04,47,13.70
2017,07,02,04,48,13.70
2017,07,02,04,49,13.70
2017,07,02,04,50,13.70
2017,07,02,04,51,13.70
2017,07,02,04,52,13.70
2017,07,02,04,53,13.70
2017,07,02,04,54,13.70
2017,07,02,04,55,13.70
2017,07,02,04,56,13.70
2017,07,02,04,57,13.70
2017,07,02,04,58,13.70
2017,07,02,04,59,13.70
2017,07,02,05,00,13.70
2017,07,02,05,01,13.70
2017,07,02,05,02,13.70
2017,07,02,05,03,13.70
2017,07,02,05,04,13.70
2017,07,02,05,05,13.60
2017,07,02,05,06,13.60
2017,07,02,05,07,13.60
2017,07,02,05,08,13.60
2017,07,02,05,09,13.60
2017,07,02,05,10,13.60
2017,07,02,05,11,13.60
2017,07,02,05,12,13.60
2017,07,02,05,13,13.60
2017,07,02,05,14,13.60
2017,07,02,05,15,13.60
2017,07,02,05,16,13.60
2017,07,02,05,17,13.60
2017,07,02,05,18,13.60
2017,07,02,05,19,13.50
2017,07,02,05,20,13.50
2017,07,02,05,21,13.50
2017,07,02,05,22,13.50
2017,07,02,05,23,13.50
2017,07,02,05,24,13.50
2017,07,02,05,25,13.50
2017,07,02,05,26,13.50
2017,07,02,05,27,13.60
2017,07,02,05,28,13.60
2017,07,02,05,29,13.60
2017,07,02,05,30,13.60
2017,07,02,05,31,13.60
2017,07,02,05,32,13.60
2017,07,02,05,33,13.60
2017,07,02,05,34,13.60
2017,07,02,05,35,13.60
2017,07,02,05,36,13.60
2017,07,02,05,37,13.60
2017,07,02,05,38,13.60
2017,07,02,05,39,13.60
2017,07,02,05,40,13.60
2017,07,02,05,41,13.60
2017,07,02,05,42,13.60
2017,07,02,05,43,13.60
2017,07,02,05,44,13.60
2017,07,02,05,45,13.60
2017,07,02,05,46,13.60
2017,07,02,05,47,13.60
2017,07,02,05,48,13.60
2017,07,02,05,49,13.60
2017,07,02,05,50,13.60
2017,07,02,05,51,13.50
2017,07,02,05,52,13.60
2017,07,02,05,53,13.60
2017,07,02,05,54,13.50
2017,07,02,05,55,13.50
2017,07,02,05,56,13.60
2017,07,02,05,57,13.60
2017,07,02,05,58,13.50
2017,07,02,05,59,13.60
2017,07,02,06,00,13.60
2017,07,02,06,01,13.60
2017,07,02,06,02,13.50
2017,07,02,06,03,13.60
2017,07,02,06,04,13.60
2017,07,02,06,05,13.60
2017,07,02,06,06,13.60
2017,07,02,06,07,13.60
2017,07,02,06,08,13.60
2017,07,02,06,09,13.60
2017,07,02,06,10,13.60
2017,07,02,06,11,13.60
2017,07,02,06,12,13.60
2017,07,02,06,13,13.60
2017,07,02,06,14,13.60
2017,07,02,06,15,13.60
2017,07,02,06,16,13.70
2017,07,02,06,17,13.70
2017,07,02,06,18,13.70
2017,07,02,06,19,13.70
2017,07,02,06,20,13.70
2017,07,02,06,21,13.70
2017,07,02,06,22,13.70
2017,07,02,06,23,13.70
2017,07,02,06,24,13.70
2017,07,02,06,25,13.70
2017,07,02,06,26,13.70
2017,07,02,06,27,13.70
2017,07,02,06,28,13.80
2017,07,02,06,29,13.80
2017,07,02,06,30,13.80
2017,07,02,06,31,13.80
2017,07,02,06,32,13.80
2017,07,02,06,33,13.90
2017,07,02,06,34,13.90
2017,07,02,06,35,13.90
2017,07,02,06,36,13.90
2017,07,02,06,37,13.90
2017,07,02,06,38,14.00
2017,07,02,06,39,14.00
2017,07,02,06,40,14.00
2017,07,02,06,41,14.10
2017,07,02,06,42,14.10
2017,07,02,06,43,14.10
2017,07,02,06,44,14.20
2017,07,02,06,45,14.20
2017,07,02,06,46,14.20
2017,07,02,06,47,14.20
2017,07,02,06,48,14.20
2017,07,02,06,49,14.30
2017,07,02,06,50,14.30
2017,07,02,06,51,14.30
2017,07,02,06,52,14.30
2017,07,02,06,53,14.30
2017,07,02,06,54,14.40
2017,07,02,06,55,14.40
2017,07,02,06,56,14.40
2017,07,02,06,57,14.50
2017,07,02,06,58,14.50
2017,07,02,06,59,14.50
2017,07,02,07,00,14.50
2017,07,02,07,01,14.60
2017,07,02,07,02,14.60
2017,07,02,07,03,14.60
2017,07,02,07,04,14.60
2017,07,02,07,05,14.60
2017,07,02,07,06,14.60
2017,07,02,07,07,14.60
2017,07,02,07,08,14.60
2017,07,02,07,09,14.60
2017,07,02,07,10,14.60
2017,07,02,07,11,14.70
2017,07,02,07,12,14.70
2017,07,02,07,13,14.70
2017,07,02,07,14,14.60
2017,07,02,07,15,14.60
2017,07,02,07,16,14.60
2017,07,02,07,17,14.60
2017,07,02,07,18,14.60
2017,07,02,07,19,14.60
2017,07,02,07,20,14.60
2017,07,02,07,21,14.50
2017,07,02,07,22,14.60
2017,07,02,07,23,14.60
2017,07,02,07,24,14.60
2017,07,02,07,25,14.60
2017,07,02,07,26,14.60
2017,07,02,07,27,14.50
2017,07,02,07,28,14.50
2017,07,02,07,29,14.50
2017,07,02,07,30,14.50
2017,07,02,07,31,14.50
2017,07,02,07,32,14.60
2017,07,02,07,33,14.60
2017,07,02,07,34,14.60
2017,07,02,07,35,14.60
2017,07,02,07,36,14.60
2017,07,02,07,37,14.60
2017,07,02,07,38,14.70
2017,07,02,07,39,14.70
2017,07,02,07,40,14.70
2017,07,02,07,41,14.70
2017,07,02,07,42,14.70
2017,07,02,07,43,14.70
2017,07,02,07,44,14.80
2017,07,02,07,45,14.80
2017,07,02,07,46,14.80
2017,07,02,07,47,14.80
2017,07,02,07,48,14.80
2017,07,02,07,49,14.80
2017,07,02,07,50,14.90
2017,07,02,07,51,14.90
2017,07,02,07,52,14.90
2017,07,02,07,53,14.90
2017,07,02,07,54,14.90
2017,07,02,07,55,14.90
2017,07,02,07,56,14.90
2017,07,02,07,57,14.90
2017,07,02,07,58,14.90
2017,07,02,07,59,14.90
2017,07,02,08,00,14.90
2017,07,02,08,01,15.00
2017,07,02,08,02,15.00
2017,07,02,08,03,15.10
2017,07,02,08,04,15.10
2017,07,02,08,05,15.10
2017,07,02,08,06,15.20
2017,07,02,08,07,15.20
2017,07,02,08,08,15.20
2017,07,02,08,09,15.20
2017,07,02,08,10,15.30
2017,07,02,08,11,15.30
2017,07,02,08,12,15.30
2017,07,02,08,13,15.30
2017,07,02,08,14,15.30
2017,07,02,08,15,15.30
2017,07,02,08,16,15.30
2017,07,02,08,17,15.30
2017,07,02,08,18,15.30
2017,07,02,08,19,15.30
2017,07,02,08,20,15.40
2017,07,02,08,21,15.40
2017,07,02,08,22,15.40
2017,07,02,08,23,15.40
2017,07,02,08,24,15.50
2017,07,02,08,25,15.50
2017,07,02,08,26,15.50
2017,07,02,08,27,15.50
2017,07,02,08,28,15.50
2017,07,02,08,29,15.60
2017,07,02,08,30,15.60
2017,07,02,08,31,15.60
2017,07,02,08,32,15.60
2017,07,02,08,33,15.60
2017,07,02,08,34,15.60
2017,07,02,08,35,15.60
2017,07,02,08,36,15.60
2017,07,02,08,37,15.60
2017,07,02,08,38,15.60
2017,07,02,08,39,15.60
2017,07,02,08,40,15.60
2017,07,02,08,41,15.60
2017,07,02,08,42,15.60
2017,07,02,08,43,15.60
2017,07,02,08,44,15.60
2017,07,02,08,45,15.60
2017,07,02,08,46,15.60
2017,07,02,08,47,15.60
2017,07,02,08,48,15.60
2017,07,02,08,49,15.60
2017,07,02,08,50,15.60
2017,07,02,08,51,15.60
2017,07,02,08,52,15.60
2017,07,02,08,53,15.60
2017,07,02,08,54,15.70
2017,07,02,08,55,15.70
2017,07,02,08,56,15.70
2017,07,02,08,57,15.80
2017,07,02,08,58,15.80
2017,07,02,08,59,15.80
2017,07,02,09,00,15.80
2017,07,02,09,01,15.80
2017,07,02,09,02,15.80
2017,07,02,09,03,15.90
2017,07,02,09,04,15.90
2017,07,02,09,05,15.90
2017,07,02,09,06,15.90
2017,07,02,09,07,15.90
2017,07,02,09,08,15.90
2017,07,02,09,09,15.90
2017,07,02,09,10,16.00
2017,07,02,09,11,16.00
2017,07,02,09,12,16.10
2017,07,02,09,13,16.10
2017,07,02,09,14,16.10
2017,07,02,09,15,16.10
2017,07,02,09,16,16.10
2017,07,02,09,17,16.10
2017,07,02,09,18,16.10
2017,07,02,09,19,16.10
2017,07,02,09,20,16.10
2017,07,02,09,21,16.20
2017,07,02,09,22,16.20
2017,07,02,09,23,16.20
2017,07,02,09,24,16.20
2017,07,02,09,25,16.20
2017,07,02,09,26,16.20
2017,07,02,09,27,16.20
2017,07,02,09,28,16.20
2017,07,02,09,29,16.20
2017,07,02,09,30,16.30
2017,07,02,09,31,16.30
2017,07,02,09,32,16.30
2017,07,02,09,33,16.30
2017,07,02,09,34,16.30
2017,07,02,09,35,16.30
2017,07,02,09,36,16.30
2017,07,02,09,37,16.30
2017,07,02,09,38,16.40
2017,07,02,09,39,16.40
2017,07,02,09,40,16.40
2017,07,02,09,41,16.40
2017,07,02,09,42,16.40
2017,07,02,09,43,16.40
2017,07,02,09,44,16.40
2017,07,02,09,45,16.40
2017,07,02,09,46,16.50
2017,07,02,09,47,16.50
2017,07,02,09,48,16.60
2017,07,02,09,49,16.60
2017,07,02,09,50,16.60
2017,07,02,09,51,16.60
2017,07,02,09,52,16.60
2017,07,02,09,53,16.60
2017,07,02,09,54,16.60
2017,07,02,09,55,16.60
2017,07,02,09,56,16.70
2017,07,02,09,57,16.70
2017,07,02,09,58,16.70
2017,07,02,09,59,16.70
2017,07,02,10,00,16.70
2017,07,02,10,01,16.70
2017,07,02,10,02,16.80
2017,07,02,10,03,16.80
2017,07,02,10,04,16.80
2017,07,02,10,05,16.80
2017,07,02,10,06,16.80
2017,07,02,10,07,16.80
2017,07,02,10,08,16.80
2017,07,02,10,09,16.80
2017,07,02,10,10,16.80
2017,07,02,10,11,16.80
2017,07,02,10,12,16.80
2017,07,02,10,13,16.80
2017,07,02,10,14,16.80
2017,07,02,10,15,16.80
2017,07,02,10,16,16.80
2017,07,02,10,17,16.90
2017,07,02,10,18,16.90
2017,07,02,10,19,16.90
2017,07,02,10,20,16.90
2017,07,02,10,21,16.90
2017,07,02,10,22,16.90
2017,07,02,10,23,16.90
2017,07,02,10,24,16.90
2017,07,02,10,25,16.90
2017,07,02,10,26,16.90
2017,07,02,10,27,16.90
2017,07,02,10,28,16.90
2017,07,02,10,29,17.00
2017,07,02,10,30,17.00
2017,07,02,10,31,17.00
2017,07,02,10,32,17.10
2017,07,02,10,33,17.10
2017,07,02,10,34,17.10
2017,07,02,10,35,17.20
2017,07,02,10,36,17.20
2017,07,02,10,37,17.20
2017,07,02,10,38,17.20
2017,07,02,10,39,17.30
2017,07,02,10,40,17.30
2017,07,02,10,41,17.30
2017,07,02,10,42,17.30
2017,07,02,10,43,17.30
2017,07,02,10,44,17.30
2017,07,02,10,45,17.30
2017,07,02,10,46,17.30
2017,07,02,10,47,17.30
2017,07,02,10,48,17.30
2017,07,02,10,49,17.30
2017,07,02,10,50,17.30
2017,07,02,10,51,17.30
2017,07,02,10,52,17.30
2017,07,02,10,53,17.30
2017,07,02,10,54,17.30
2017,07,02,10,55,17.30
2017,07,02,10,56,17.40
2017,07,02,10,57,17.40
2017,07,02,10,58,17.40
2017,07,02,10,59,17.40
2017,07,02,11,00,17.50
2017,07,02,11,01,17.50
2017,07,02,11,02,17.60
2017,07,02,11,03,17.60
2017,07,02,11,04,17.60
2017,07,02,11,05,17.60
2017,07,02,11,06,17.60
2017,07,02,11,07,17.60
2017,07,02,11,08,17.60
2017,07,02,11,09,17.60
2017,07,02,11,10,17.60
2017,07,02,11,11,17.70
2017,07,02,11,12,17.70
2017,07,02,11,13,17.60
2017,07,02,11,14,17.60
2017,07,02,11,15,17.60
2017,07,02,11,16,17.60
2017,07,02,11,17,17.60
2017,07,02,11,18,17.70
2017,07,02,11,19,17.70
2017,07,02,11,20,17.70
2017,07,02,11,21,17.70
2017,07,02,11,22,17.70
2017,07,02,11,23,17.80
2017,07,02,11,24,17.80
2017,07,02,11,25,17.80
2017,07,02,11,26,17.80
2017,07,02,11,27,17.80
2017,07,02,11,28,17.80
2017,07,02,11,29,17.90
2017,07,02,11,30,17.80
2017,07,02,11,31,17.90
2017,07,02,11,32,17.90
2017,07,02,11,33,17.90
2017,07,02,11,34,18.00
2017,07,02,11,35,18.00
2017,07,02,11,36,18.10
2017,07,02,11,37,18.10
2017,07,02,11,38,18.10
2017,07,02,11,39,18.20
2017,07,02,11,40,18.20
2017,07,02,11,41,18.20
2017,07,02,11,42,18.30
2017,07,02,11,43,18.30
2017,07,02,11,44,18.30
2017,07,02,11,45,18.40
2017,07,02,11,46,18.40
2017,07,02,11,47,18.40
2017,07,02,11,48,18.50
2017,07,02,11,49,18.50
2017,07,02,11,50,18.60
2017,07,02,11,51,18.70
2017,07,02,11,52,18.70
2017,07,02,11,53,18.70
2017,07,02,11,54,18.80
2017,07,02,11,55,18.80
2017,07,02,11,56,18.80
2017,07,02,11,57,18.80
2017,07,02,11,58,18.80
2017,07,02,11,59,18.70
2017,07,02,12,00,18.70
2017,07,02,12,01,18.70
2017,07,02,12,02,18.70
2017,07,02,12,03,18.70
2017,07,02,12,04,18.70
2017,07,02,12,05,18.70
2017,07,02,12,06,18.70
2017,07,02,12,07,18.70
2017,07,02,12,08,18.70
2017,07,02,12,09,18.70
2017,07,02,12,10,18.70
2017,07,02,12,11,18.80
2017,07,02,12,12,18.80
2017,07,02,12,13,18.80
2017,07,02,12,14,18.80
2017,07,02,12,15,18.80
2017,07,02,12,16,18.90
2017,07,02,12,17,18.90
2017,07,02,12,18,18.90
2017,07,02,12,19,19.00
2017,07,02,12,20,19.00
2017,07,02,12,21,19.10
2017,07,02,12,22,19.10
2017,07,02,12,23,19.10
2017,07,02,12,24,19.10
2017,07,02,12,25,19.10
2017,07,02,12,26,19.10
2017,07,02,12,27,19.10
2017,07,02,12,28,19.20
2017,07,02,12,29,19.20
2017,07,02,12,30,19.20
2017,07,02,12,31,19.20
2017,07,02,12,32,19.20
2017,07,02,12,33,19.20
2017,07,02,12,34,19.30
2017,07,02,12,35,19.30
2017,07,02,12,36,19.30
2017,07,02,12,37,19.30
2017,07,02,12,38,19.30
2017,07,02,12,39,19.30
2017,07,02,12,40,19.30
2017,07,02,12,41,19.30
2017,07,02,12,42,19.30
2017,07,02,12,43,19.30
2017,07,02,12,44,19.30
2017,07,02,12,45,19.30
2017,07,02,12,46,19.40
2017,07,02,12,47,19.40
2017,07,02,12,48,19.40
2017,07,02,12,49,19.50
2017,07,02,12,50,19.50
2017,07,02,12,51,19.60
2017,07,02,12,52,19.60
2017,07,02,12,53,19.60
2017,07,02,12,54,19.60
2017,07,02,12,55,19.60
2017,07,02,12,56,19.60
2017,07,02,12,57,19.70
2017,07,02,12,58,19.70
2017,07,02,12,59,19.70
2017,07,02,13,00,19.70
2017,07,02,13,01,19.70
2017,07,02,13,02,19.70
2017,07,02,13,03,19.70
2017,07,02,13,04,19.70
2017,07,02,13,05,19.70
2017,07,02,13,06,19.70
2017,07,02,13,07,19.70
2017,07,02,13,08,19.70
2017,07,02,13,09,19.70
2017,07,02,13,10,19.70
2017,07,02,13,11,19.70
2017,07,02,13,12,19.70
2017,07,02,13,13,19.80
2017,07,02,13,14,19.80
2017,07,02,13,15,19.80
2017,07,02,13,16,19.80
2017,07,02,13,17,19.90
2017,07,02,13,18,19.90
2017,07,02,13,19,19.90
2017,07,02,13,20,20.00
2017,07,02,13,21,20.00
2017,07,02,13,22,20.10
2017,07,02,13,23,20.10
2017,07,02,13,24,20.10
2017,07,02,13,25,20.10
2017,07,02,13,26,20.10
2017,07,02,13,27,20.10
2017,07,02,13,28,20.10
2017,07,02,13,29,20.10
2017,07,02,13,30,20.10
2017,07,02,13,31,20.10
2017,07,02,13,32,20.10
2017,07,02,13,33,20.10
2017,07,02,13,34,20.10
2017,07,02,13,35,20.00
2017,07,02,13,36,20.00
2017,07,02,13,37,20.10
2017,07,02,13,38,20.10
2017,07,02,13,39,20.10
2017,07,02,13,40,20.10
2017,07,02,13,41,20.10
2017,07,02,13,42,20.20
2017,07,02,13,43,20.20
2017,07,02,13,44,20.10
2017,07,02,13,45,20.00
2017,07,02,13,46,20.00
2017,07,02,13,47,19.90
2017,07,02,13,48,19.90
2017,07,02,13,49,19.90
2017,07,02,13,50,19.80
2017,07,02,13,51,19.80
2017,07,02,13,52,19.80
2017,07,02,13,53,19.80
2017,07,02,13,54,19.80
2017,07,02,13,55,19.80
2017,07,02,13,56,19.80
2017,07,02,13,57,19.80
2017,07,02,13,58,19.90
2017,07,02,13,59,19.90
2017,07,02,14,00,19.90
2017,07,02,14,01,19.90
2017,07,02,14,02,19.90
2017,07,02,14,03,19.90
2017,07,02,14,04,19.90
2017,07,02,14,05,19.90
2017,07,02,14,06,20.00
2017,07,02,14,07,20.10
2017,07,02,14,08,20.10
2017,07,02,14,09,20.20
2017,07,02,14,10,20.30
2017,07,02,14,11,20.30
2017,07,02,14,12,20.40
2017,07,02,14,13,20.40
2017,07,02,14,14,20.40
2017,07,02,14,15,20.50
2017,07,02,14,16,20.50
2017,07,02,14,17,20.60
2017,07,02,14,18,20.60
2017,07,02,14,19,20.50
2017,07,02,14,20,20.50
2017,07,02,14,21,20.40
2017,07,02,14,22,20.40
2017,07,02,14,23,20.40
2017,07,02,14,24,20.30
2017,07,02,14,25,20.30
2017,07,02,14,26,20.20
2017,07,02,14,27,20.20
2017,07,02,14,28,20.20
2017,07,02,14,29,20.10
2017,07,02,14,30,20.10
2017,07,02,14,31,20.00
2017,07,02,14,32,20.00
2017,07,02,14,33,19.90
2017,07,02,14,34,19.90
2017,07,02,14,35,19.90
2017,07,02,14,36,19.90
2017,07,02,14,37,19.90
2017,07,02,14,38,19.90
2017,07,02,14,39,19.90
2017,07,02,14,40,19.90
2017,07,02,14,41,19.90
2017,07,02,14,42,19.90
2017,07,02,14,43,19.90
2017,07,02,14,44,19.90
2017,07,02,14,45,19.90
2017,07,02,14,46,19.90
2017,07,02,14,47,19.90
2017,07,02,14,48,19.90
2017,07,02,14,49,19.90
2017,07,02,14,50,19.90
2017,07,02,14,51,20.00
2017,07,02,14,52,20.10
2017,07,02,14,53,20.10
2017,07,02,14,54,20.00
2017,07,02,14,55,19.90
2017,07,02,14,56,19.80
2017,07,02,14,57,19.80
2017,07,02,14,58,19.70
2017,07,02,14,59,19.60
2017,07,02,15,00,19.70
2017,07,02,15,01,19.80
2017,07,02,15,02,19.90
2017,07,02,15,03,20.10
2017,07,02,15,04,20.30
2017,07,02,15,05,20.40
2017,07,02,15,06,20.50
2017,07,02,15,07,20.50
2017,07,02,15,08,20.60
2017,07,02,15,09,20.60
2017,07,02,15,10,20.60
2017,07,02,15,11,20.70
2017,07,02,15,12,20.70
2017,07,02,15,13,20.70
2017,07,02,15,14,20.70
2017,07,02,15,15,20.70
2017,07,02,15,16,20.70
2017,07,02,15,17,20.60
2017,07,02,15,18,20.60
2017,07,02,15,19,20.60
2017,07,02,15,20,20.50
2017,07,02,15,21,20.50
2017,07,02,15,22,20.60
2017,07,02,15,23,20.60
2017,07,02,15,24,20.50
2017,07,02,15,25,20.50
2017,07,02,15,26,20.40
2017,07,02,15,27,20.40
2017,07,02,15,28,20.40
2017,07,02,15,29,20.40
2017,07,02,15,30,20.40
2017,07,02,15,31,20.40
2017,07,02,15,32,20.30
2017,07,02,15,33,20.30
2017,07,02,15,34,20.20
2017,07,02,15,35,20.10
2017,07,02,15,36,20.00
2017,07,02,15,37,19.90
2017,07,02,15,38,19.90
2017,07,02,15,39,19.80
2017,07,02,15,40,19.90
2017,07,02,15,41,19.90
2017,07,02,15,42,20.00
2017,07,02,15,43,20.20
2017,07,02,15,44,20.20
2017,07,02,15,45,20.20
2017,07,02,15,46,20.30
2017,07,02,15,47,20.30
2017,07,02,15,48,20.30
2017,07,02,15,49,20.20
2017,07,02,15,50,20.20
2017,07,02,15,51,20.20
2017,07,02,15,52,20.20
2017,07,02,15,53,20.20
2017,07,02,15,54,20.10
2017,07,02,15,55,20.10
2017,07,02,15,56,20.10
2017,07,02,15,57,20.00
2017,07,02,15,58,20.00
2017,07,02,15,59,20.00
2017,07,02,16,00,20.00
2017,07,02,16,01,20.00
2017,07,02,16,02,20.00
2017,07,02,16,03,20.10
2017,07,02,16,04,20.10
2017,07,02,16,05,20.10
2017,07,02,16,06,20.10
2017,07,02,16,07,20.10
2017,07,02,16,08,20.10
2017,07,02,16,09,20.10
2017,07,02,16,10,20.10
2017,07,02,16,11,20.10
2017,07,02,16,12,20.10
2017,07,02,16,13,20.20
2017,07,02,16,14,20.10
2017,07,02,16,15,20.10
2017,07,02,16,16,20.20
2017,07,02,16,17,20.20
2017,07,02,16,18,20.20
2017,07,02,16,19,20.20
2017,07,02,16,20,20.10
2017,07,02,16,21,20.10
2017,07,02,16,22,20.10
2017,07,02,16,23,20.10
2017,07,02,16,24,20.10
2017,07,02,16,25,20.10
2017,07,02,16,26,20.10
2017,07,02,16,27,20.10
2017,07,02,16,28,20.10
2017,07,02,16,29,20.20
2017,07,02,16,30,20.20
2017,07,02,16,31,20.20
2017,07,02,16,32,20.30
2017,07,02,16,33,20.30
2017,07,02,16,34,20.30
2017,07,02,16,35,20.30
2017,07,02,16,36,20.30
2017,07,02,16,37,20.30
2017,07,02,16,38,20.30
2017,07,02,16,39,20.30
2017,07,02,16,40,20.30
2017,07,02,16,41,20.30
2017,07,02,16,42,20.30
2017,07,02,16,43,20.40
2017,07,02,16,44,20.60
2017,07,02,16,45,20.70
2017,07,02,16,46,20.80
2017,07,02,16,47,20.90
2017,07,02,16,48,21.00
2017,07,02,16,49,21.20
2017,07,02,16,50,21.20
2017,07,02,16,51,21.30
2017,07,02,16,52,21.40
2017,07,02,16,53,21.50
2017,07,02,16,54,21.60
2017,07,02,16,55,21.60
2017,07,02,16,56,21.70
2017,07,02,16,57,21.70
2017,07,02,16,58,21.80
2017,07,02,16,59,21.80
2017,07,02,17,00,21.90
2017,07,02,17,01,21.90
2017,07,02,17,02,21.90
2017,07,02,17,03,22.00
2017,07,02,17,04,22.00
2017,07,02,17,05,22.00
2017,07,02,17,06,22.00
2017,07,02,17,07,21.90
2017,07,02,17,08,21.90
2017,07,02,17,09,21.90
2017,07,02,17,10,21.90
2017,07,02,17,11,21.90
2017,07,02,17,12,21.90
2017,07,02,17,13,21.90
2017,07,02,17,14,22.00
2017,07,02,17,15,22.00
2017,07,02,17,16,22.00
2017,07,02,17,17,22.10
2017,07,02,17,18,22.10
2017,07,02,17,19,22.10